Temp
61 61 60 60 61 61 60 60 61 62 64 65 66 67 67 67 67 65 66 68 69 69 69 69 69 70 70 70 71 68 65 62 63 61 63 63 62 63 64 64 64 63 62
65 62 60 59 59 58 59 60 60 60 62 63 65 65 66 66 66 66 66 69 69 69 69 68 70 71 70 71 69 68 67 64 62 61 62 61 61 61 62 62 63 65 63
61 61 59 58 58 58 58 58 59 60 60 61 62 63 64 66 67 66 67 68 69 69 71 69 71 71 70 71 70 68 66 65 62 61 60 60 60 60 60 60 61 61 63
63 61 59 59 58 58 58 58 58 59 59 59 60 62 64 64 66 67 68 67 68 69 70 72 72 71 71 71 69 68 64 63 62 60 59 59 59 60 60 58 58 59 59
63 62 60 60 59 58 57 57 58 58 59 60 60 61 61 62 66 64 66 66 66 67 68 71 73 71 67 68 70 67 64 62 60 59 58 58 58 58 58 58 58 57 58
59 58 60 61 60 58 58 56 56 57 57 58 58 59 59 64 57 54 57 64 66 65 65 68 71 65 64 60 60 60 64 63 61 59 57 57 57 58 58 58 56 55 55
57 60 59 58 58 57 58 57 56 55 55 54 56 56 57 59 53 51 53 60 61 62 63 64 68 71 65 69 57 57 58 56 60 61 59 58 58 59 59 57 56 56 55
59 58 59 59 59 59 58 58 57 56 55 55 55 55 55 58 52 50 51 56 59 61 63 64 66 70 66 67 63 64 63 63 61 63 62 62 61 60 61 60 59 57 57
57 58 60 60 59 58 57 58 57 52 50 51 53 54 53 55 50 49 50 58 59 60 64 65 67 69 57 51 65 63 60 57 51 50 53 51 49 50 56 59 57 56 55
54 56 57 57 57 58 58 57 55 54 55 55 55 53 53 53 50 48 49 58 58 60 63 65 56 64 50 51 64 62 60 58 58 57 56 52 52 52 50 60 58 56 55
57 56 56 56 54 52 53 54 52 53 53 51 53 54 52 52 53 49 47 56 59 60 62 64 64 50 50 48 53 62 60 58 56 57 56 56 56 56 57 57 58 58 56
55 55 55 55 56 58 51 49 49 49 49 49 49 50 53 51 50 50 47 46 53 59 60 64 62 49 49 47 53 49 48 53 58 56 55 56 55 55 56 58 59 60 61
53 52 53 54 55 55 51 51 49 49 49 50 50 50 51 53 53 50 47 46 46 52 60 60 51 48 46 49 48 46 49 59 57 57 57 56 55 56 58 60 60 60 60
51 51 52 51 51 52 54 55 54 53 52 50 50 50 52 54 55 56 56 56 48 50 52 53 52 52 52 52 51 55 60 59 58 58 58 55 58 58 57 58 58 58 58
49 50 49 50 50 50 52 53 53 55 53 53 53 53 53 52 54 52 53 59 58 55 54 55 58 58 58 58 58 57 57 57 55 54 54 57 57 56 57 58 57 58 57
47 47 47 47 48 49 49 49 46 47 47 45 47 51 54 50 47 43 44 47 46 46 58 59 58 59 58 58 58 57 56 54 55 56 55 55 55 55 56 57 56 57 56
46 46 46 46 47 47 48 48 48 47 44 43 42 44 44 49 42 42 43 42 44 48 59 59 58 59 58 59 57 59 58 56 56 56 56 55 55 54 53 56 57 56 55
47 44 46 47 48 48 48 48 48 49 49 49 43 43 42 41 41 42 41 47 55 57 60 58 58 58 58 57 56 56 56 57 57 56 56 58 57 57 54 55 56 57 55
47 47 49 50 51 50 51 50 49 50 50 51 51 42 42 40 41 43 44 60 60 58 58 58 57 57 57 58 57 57 57 57 56 57 56 57 58 57 55 55 55 45 49
48 45 44 50 54 52 51 50 50 50 51 53 52 49 46 47 48 52 60 60 59 58 57 57 58 58 58 58 58 58 56 55 56 56 56 56 58 59 55 56 57 56 56
44 45 42 56 57 56 53 52 53 53 54 54 53 52 47 58 59 60 59 58 57 57 57 58 59 60 60 59 58 58 57 57 57 60 57 58 58 57 58 57 57 57 57
43 45 51 59 58 58 57 57 56 56 56 56 55 48 44 60 60 59 58 57 57 58 59 61 62 60 61 59 59 58 57 56 55 56 56 59 59 58 58 57 57 57 56
45 49 58 58 57 52 58 59 58 58 58 58 58 58 59 58 58 58 58 57 56 56 59 61 60 58 60 60 61 62 60 57 57 57 57 58 59 58 58 57 57 56 55
46 52 59 58 58 58 58 58 56 51 56 56 55 54 54 54 53 52 52 52 52 51 53 56 57 57 57 56 56 57 58 57 58 58 58 58 56 54 55 54 53 51 50
52 59 59 59 58 58 57 56 55 55 54 53 51 50 50 49 48 48 48 48 48 47 47 49 51 53 53 54 53 51 40 40 51 46 55 54 51 50 51 50 49 49 49
60 60 59 58 57 57 55 53 52 51 49 48 47 47 46 45 44 44 44 44 44 44 44 44 45 46 46 45 43 38 38 39 45 42 52 51 49 47 47 46 46 44 44
MSLP
1004.37 1004.65 1004.91 1005.17 1005.56 1005.78 1006.03 1006.33 1006.75 1006.86 1007.02 1006.73 1006.65 1006.63 1006.47 1006.39 1006.30 1006.26 1006.02 1006.12 1006.16 1006.02 1006.16 1006.48 1006.14 1006.13 1005.99 1006.37 1006.08 1006.52 1007.00 1007.21 1007.79 1007.49 1007.51 1007.61 1007.76 1007.66 1008.32 1008.25 1008.32 1008.90 1008.97
1003.49 1003.86 1004.24 1004.58 1004.98 1005.63 1005.82 1005.83 1006.05 1006.36 1006.41 1006.51 1006.63 1006.36 1006.48 1006.14 1005.85 1006.11 1005.61 1005.81 1005.88 1005.72 1005.36 1005.51 1005.11 1004.73 1005.34 1005.05 1005.25 1005.76 1005.56 1006.31 1006.51 1007.04 1007.52 1007.99 1007.64 1007.64 1008.08 1008.44 1008.60 1008.68 1008.66
1002.94 1003.33 1003.72 1004.13 1004.42 1004.76 1005.03 1005.19 1005.39 1005.64 1005.79 1005.83 1005.82 1005.87 1005.68 1005.55 1005.52 1005.28 1005.44 1005.62 1005.45 1004.93 1004.78 1004.33 1004.12 1004.05 1003.76 1003.90 1004.54 1005.05 1004.90 1005.44 1005.93 1006.70 1007.29 1007.52 1007.62 1007.94 1008.54 1008.54 1008.60 1008.81 1008.62
1002.33 1002.80 1003.18 1003.44 1003.61 1003.70 1003.88 1004.15 1004.30 1004.46 1004.84 1005.15 1005.26 1005.47 1005.40 1005.38 1005.23 1005.02 1005.12 1005.09 1004.62 1004.12 1004.02 1003.62 1003.40 1003.32 1003.22 1003.48 1004.02 1003.92 1004.50 1004.73 1005.52 1006.29 1006.90 1006.99 1007.32 1007.72 1008.15 1008.39 1008.68 1008.50 1008.81
1002.10 1001.96 1002.35 1002.51 1002.64 1002.81 1003.12 1003.34 1003.50 1003.85 1004.02 1004.24 1004.50 1004.65 1004.71 1004.94 1004.79 1004.76 1004.72 1004.48 1004.12 1004.00 1003.81 1003.08 1002.48 1002.25 1002.24 1002.30 1003.12 1003.29 1004.00 1004.26 1005.03 1005.82 1006.29 1006.61 1007.15 1007.68 1007.90 1007.92 1008.12 1008.28 1008.63
1002.10 1002.61 1001.86 1001.80 1002.03 1002.19 1002.43 1002.73 1003.02 1003.25 1003.40 1003.59 1003.84 1004.05 1004.28 1004.31 1004.23 1004.46 1004.75 1004.49 1004.11 1003.91 1003.61 1002.69 1001.93 1001.73 1001.54 1001.62 1002.10 1002.67 1002.43 1003.14 1004.16 1005.09 1005.39 1006.06 1006.53 1006.93 1007.22 1007.66 1007.87 1008.26 1008.85
1001.68 1001.91 1001.78 1001.82 1001.96 1001.70 1001.82 1002.16 1002.43 1002.60 1002.73 1002.87 1002.96 1003.13 1003.19 1003.40 1003.59 1003.83 1004.15 1003.90 1003.47 1002.99 1002.79 1002.50 1001.80 1000.94 1000.76 1000.94 1001.78 1002.05 1001.96 1002.18 1002.51 1003.49 1004.68 1005.16 1005.86 1005.82 1006.46 1007.15 1007.35 1007.57 1008.07
1001.16 1001.06 1000.94 1000.94 1001.02 1001.31 1001.48 1001.45 1001.60 1001.87 1002.08 1002.31 1002.51 1002.54 1002.60 1002.61 1002.70 1002.83 1002.92 1003.19 1002.82 1002.19 1001.84 1001.62 1001.10 1000.28 1000.00 1000.43 1001.02 1001.69 1001.87 1002.40 1002.81 1003.30 1003.66 1004.08 1004.54 1005.02 1005.66 1005.91 1006.25 1007.13 1007.72
1000.80 1000.62 1000.34 1000.09 1000.04 1000.13 1000.22 1000.32 1000.58 1001.02 1001.16 1001.41 1001.58 1001.83 1001.99 1002.15 1002.26 1002.14 1002.25 1002.02 1001.80 1001.40 1000.89 1000.46 999.79 999.25 999.38 1000.15 1000.62 1001.04 1001.63 1002.58 1002.91 1003.18 1003.41 1003.85 1004.29 1004.62 1005.33 1005.84 1006.27 1007.31 1007.61
1000.28 1000.04 999.91 999.76 999.50 999.19 999.00 999.15 999.48 999.73 999.91 1000.28 1000.46 1000.64 1000.79 1001.20 1001.50 1001.45 1001.42 1001.40 1001.14 1000.63 999.99 999.25 998.82 998.70 999.41 999.96 999.89 1000.36 1001.41 1002.36 1002.58 1003.54 1004.17 1004.29 1004.41 1004.94 1005.13 1005.03 1005.78 1006.64 1007.04
998.91 998.70 998.65 998.64 998.58 998.49 998.36 998.29 998.46 998.68 999.02 999.26 999.40 999.52 999.75 1000.14 1000.41 1000.37 1000.33 1000.72 1000.37 999.82 999.27 998.62 998.18 998.70 999.12 999.45 999.45 1000.29 1000.92 1001.86 1002.70 1003.46 1003.96 1004.37 1004.78 1005.06 1004.97 1005.13 1005.61 1005.96 1006.42
998.01 997.72 997.50 997.32 997.22 997.28 997.56 997.68 997.78 998.10 998.34 998.51 998.62 998.51 998.61 998.94 999.29 999.18 999.25 999.73 999.17 999.20 998.68 998.40 997.95 998.55 998.64 998.74 999.88 1000.82 1001.19 1001.71 1002.73 1003.62 1004.08 1004.67 1004.82 1004.87 1005.04 1005.40 1005.69 1005.82 1005.87
996.79 996.48 996.38 996.46 996.31 996.36 996.64 996.76 997.08 997.32 997.42 997.54 997.75 997.62 997.62 997.86 997.90 997.84 998.03 998.27 998.29 998.53 997.98 997.40 997.60 998.34 998.46 999.23 1000.15 1000.72 1000.94 1001.73 1002.79 1003.58 1004.02 1004.41 1004.33 1004.65 1005.16 1005.64 1005.81 1005.90 1005.92
995.70 995.32 995.09 995.01 994.85 994.95 995.09 995.18 995.33 995.54 995.83 996.17 996.40 996.50 996.74 996.79 996.75 996.79 996.92 997.22 997.17 997.25 997.31 997.24 997.49 998.10 998.12 999.42 1000.37 1000.30 1000.55 1001.46 1002.48 1003.14 1003.71 1004.00 1004.29 1004.93 1005.42 1005.64 1005.86 1005.92 1006.01
994.48 994.11 993.82 993.69 993.61 993.58 993.55 993.64 993.74 993.95 994.36 994.73 995.05 995.55 995.58 995.41 995.44 995.89 995.94 995.88 995.86 995.80 996.39 996.98 997.57 997.70 998.72 999.44 999.90 1000.40 1001.05 1001.88 1002.45 1003.01 1003.40 1003.95 1004.56 1005.12 1005.47 1005.60 1005.74 1005.88 1005.80
992.75 992.36 992.10 991.84 991.66 991.64 991.79 991.96 992.12 992.46 992.91 993.43 993.97 994.36 994.52 994.50 994.84 994.94 994.82 994.66 994.86 995.15 995.56 996.22 996.80 997.55 998.19 998.90 999.71 1000.52 1001.34 1001.86 1002.37 1002.80 1003.37 1004.04 1004.70 1005.14 1005.50 1005.64 1005.66 1005.61 1005.67
991.28 991.43 990.90 990.26 989.69 989.41 989.74 990.20 990.62 991.21 991.66 992.15 992.80 993.27 993.54 993.70 993.94 994.15 993.83 993.98 994.33 994.52 994.92 995.41 996.80 997.60 998.16 998.69 999.54 1000.14 1001.06 1001.83 1002.20 1002.74 1003.42 1004.10 1004.62 1005.00 1005.37 1005.43 1005.48 1005.48 1005.80
989.81 989.62 989.01 987.79 986.87 986.40 986.52 987.78 989.27 989.92 990.25 991.15 991.82 992.17 992.47 992.83 993.35 993.80 994.04 993.52 993.92 993.92 995.16 995.72 996.50 997.59 998.16 998.56 999.24 1000.25 1001.21 1001.91 1002.29 1002.82 1003.50 1003.97 1004.35 1004.59 1005.00 1005.11 1005.24 1005.38 1005.62
989.15 987.72 986.81 985.20 983.65 982.67 982.88 985.14 987.51 988.67 989.26 989.83 990.23 990.86 991.13 991.81 992.78 993.33 993.85 992.52 992.82 993.81 995.11 996.15 996.56 996.94 997.35 998.22 999.56 1000.37 1001.12 1001.82 1002.28 1002.96 1003.43 1003.73 1003.94 1004.20 1004.65 1004.79 1005.03 1005.32 1005.48
987.71 986.38 985.16 983.46 982.49 981.97 982.19 983.97 985.88 987.06 988.13 988.61 989.21 989.66 990.36 991.64 992.56 992.79 993.12 993.29 993.93 994.98 995.73 995.40 995.82 996.80 997.91 998.78 999.48 1000.44 1001.30 1001.80 1002.40 1002.85 1003.12 1003.36 1003.66 1003.94 1004.38 1004.70 1004.90 1005.21 1005.44
987.15 985.84 984.14 982.77 982.85 983.15 983.96 984.56 985.46 986.42 987.14 987.66 988.47 988.86 989.48 990.02 991.18 991.29 992.07 993.27 994.20 995.10 995.37 995.76 996.54 997.20 997.76 998.69 999.72 1000.50 1001.07 1001.67 1002.11 1002.29 1002.64 1003.06 1003.44 1003.80 1004.14 1004.52 1004.82 1005.11 1005.33
986.72 985.94 984.19 983.34 983.71 983.55 983.96 983.97 984.72 985.86 986.73 987.57 988.12 988.77 988.76 990.26 991.36 992.02 993.01 994.05 994.57 994.79 995.16 995.66 996.31 997.36 998.16 998.88 999.55 1000.19 1000.79 1001.38 1001.74 1002.00 1002.46 1002.87 1003.30 1003.66 1004.08 1004.49 1004.83 1005.13 1005.44
986.87 985.39 984.18 983.97 984.58 984.97 984.96 985.24 985.91 986.66 986.96 987.92 988.74 989.45 990.46 991.21 991.94 992.96 993.87 994.56 995.00 995.47 996.04 996.39 997.16 997.97 998.40 998.90 999.27 999.73 1000.54 1001.10 1001.44 1001.78 1002.41 1002.80 1003.22 1003.66 1004.13 1004.57 1004.99 1005.40 1005.78
986.02 985.40 984.96 984.87 985.14 985.56 986.11 986.75 987.42 987.89 988.70 989.35 990.16 990.98 991.86 992.66 993.47 994.30 994.89 995.47 996.14 996.71 996.79 997.29 997.79 998.23 998.66 999.04 999.42 1000.05 1000.53 1000.99 1001.29 1001.74 1002.22 1002.82 1003.47 1003.93 1004.48 1005.04 1005.53 1006.04 1006.55
985.83 985.29 985.82 986.02 986.38 986.74 987.31 987.99 988.74 989.62 990.47 991.14 991.92 992.75 993.68 994.23 994.98 995.73 996.28 996.72 997.22 997.79 998.37 998.56 998.80 999.02 999.20 999.54 1000.12 1000.57 1000.94 1001.10 1001.51 1001.96 1002.63 1003.31 1004.12 1004.73 1005.17 1005.79 1006.36 1006.85 1007.16
985.70 986.28 986.66 987.08 987.72 988.48 989.22 990.01 990.78 991.52 992.36 993.11 993.82 994.55 995.16 995.79 996.57 997.17 997.72 998.28 998.79 999.24 999.55 999.83 999.96 999.97 1000.14 1000.62 1001.08 1001.41 1001.61 1001.93 1002.40 1002.73 1003.24 1004.05 1004.83 1005.55 1006.03 1006.60 1007.08 1007.63 1008.08
Wind_Speed
9 9 8 8 7 6 6 5 4 3 4 4 5 6 4 4 4 5 6 7 10 11 12 15 15 13 11 10 7 5 5 5 8 3 2 1 1 5 4 4 4 4 3
13 9 7 7 7 7 6 6 5 1 1 2 4 4 5 5 4 6 5 8 10 12 14 13 18 10 16 11 6 10 8 8 5 6 3 3 2 3 4 5 3 3 3
8 8 8 8 8 9 8 8 7 6 4 3 3 5 6 7 8 6 6 8 11 11 11 12 17 13 11 7 8 9 6 6 4 4 4 2 2 2 2 2 3 3 3
10 10 10 10 11 9 9 8 7 7 5 5 5 5 5 6 8 11 12 11 12 11 13 13 15 12 13 11 11 11 6 7 5 4 3 3 2 2 2 3 3 2 3
8 13 12 12 10 9 8 8 8 7 7 6 5 5 5 5 6 9 13 13 11 11 13 14 14 16 18 14 9 10 8 6 4 4 3 3 3 3 5 3 4 2 3
5 8 8 11 12 11 9 8 7 8 8 7 7 7 7 6 9 11 12 13 15 12 13 14 15 16 16 17 16 15 14 10 7 5 3 4 4 3 4 4 4 3 2
6 7 7 8 8 9 10 9 10 10 8 8 8 7 8 8 10 11 14 12 14 13 13 13 14 11 14 12 14 15 13 11 10 9 7 6 6 7 6 5 5 4 4
10 9 8 8 11 11 11 13 12 9 11 10 10 10 8 9 12 15 14 12 12 12 14 14 16 16 10 11 11 10 7 6 6 6 8 7 6 7 8 7 6 4 0
10 10 11 11 12 11 12 13 12 9 8 9 8 11 11 11 12 16 14 12 11 14 15 13 15 14 12 14 12 11 8 4 6 5 5 8 8 8 8 5 4 4 3
7 7 7 8 10 13 14 13 12 10 12 9 11 10 12 11 13 17 14 9 12 11 13 13 16 16 13 15 10 12 11 7 8 5 3 5 6 4 7 4 5 4 3
11 11 12 12 10 9 10 9 10 11 9 9 10 9 9 9 10 18 17 12 11 10 10 10 6 14 19 14 8 11 10 9 6 6 5 4 3 2 2 2 4 4 4
12 16 18 17 14 13 10 8 6 7 8 9 9 10 8 7 13 19 17 16 14 10 12 11 6 18 15 17 11 10 15 11 7 5 5 3 3 2 2 2 2 3 2
16 16 15 14 15 13 11 11 8 9 11 11 10 11 11 8 10 19 18 18 17 11 11 13 13 18 20 13 13 18 15 8 7 6 5 3 3 4 4 3 3 3 2
14 16 15 15 15 15 13 12 13 13 12 11 11 12 10 10 9 7 6 8 11 10 10 7 12 12 8 11 9 10 7 7 7 7 5 3 4 3 2 2 2 3 2
17 17 17 14 15 14 13 12 12 13 13 12 12 11 11 8 8 10 10 9 9 10 10 10 10 10 9 7 7 6 6 6 5 4 4 5 3 3 2 2 2 2 2
17 13 13 13 12 12 12 12 19 18 17 18 16 12 8 13 11 13 14 18 14 20 10 10 8 9 11 10 9 7 5 6 5 5 5 4 4 4 3 2 1 2 2
17 14 13 16 13 14 14 12 11 12 19 17 17 19 19 15 11 9 13 15 21 15 12 10 8 10 10 10 9 9 7 4 5 5 5 5 4 4 4 3 3 2 1
17 15 16 17 17 17 18 16 13 11 8 9 13 16 17 17 11 10 10 19 10 5 9 12 11 10 10 9 8 6 6 6 5 5 5 6 5 6 4 3 3 3 3
13 12 14 15 17 17 18 18 15 13 10 9 5 7 17 17 15 19 23 12 13 10 7 8 9 9 8 8 7 5 6 6 5 5 5 5 5 4 4 4 4 2 3
11 19 18 13 3 7 10 15 15 13 10 10 7 7 7 8 8 12 10 9 9 8 8 8 8 8 7 8 7 6 6 6 6 5 6 5 5 5 4 4 3 3 2
9 13 17 4 6 7 8 9 11 11 10 8 9 10 17 15 12 13 10 10 9 8 9 9 9 8 7 7 7 7 7 6 6 6 6 5 5 4 4 4 3 4 3
8 10 11 4 7 8 10 8 12 12 13 10 8 5 16 11 11 11 11 9 7 8 7 8 8 6 7 8 8 8 7 7 5 5 5 5 5 4 4 4 4 3 3
8 9 2 8 11 11 10 12 10 13 13 11 11 12 11 11 11 11 10 9 7 7 5 7 7 6 5 6 6 7 8 7 6 6 5 5 5 4 4 3 4 3 3
9 7 10 9 10 11 12 12 11 12 14 12 12 12 11 11 11 11 10 9 8 7 7 6 6 7 7 5 4 4 5 5 5 6 8 6 6 6 6 6 6 6 5
7 8 11 12 12 10 12 13 13 13 12 12 11 11 10 11 11 10 9 8 8 8 8 7 6 8 10 10 9 10 8 10 8 8 8 10 10 10 8 7 7 7 8
9 12 11 11 12 12 12 12 11 11 11 11 11 10 10 11 10 9 9 9 8 8 9 7 9 12 13 11 12 11 12 12 13 12 10 10 10 8 8 9 11 7 8
Wind_Direction
197 200 190 190 202 206 200 211 215 227 261 280 287 281 280 266 274 255 248 251 244 245 231 237 241 240 249 230 214 199 189 177 223 258 210 246 178 139 171 146 147 182 197
206 207 197 191 188 192 185 178 164 176 296 297 290 293 274 285 281 260 267 271 256 239 235 233 247 227 226 226 210 231 199 206 186 185 181 231 173 154 161 158 165 195 183
193 191 197 193 176 185 185 182 175 178 194 234 287 299 310 309 299 286 276 273 268 264 250 227 248 240 247 241 227 237 211 177 172 145 192 188 127 166 159 165 182 208 218
191 190 189 195 200 194 193 193 196 202 209 221 227 248 255 274 293 299 290 281 280 272 264 251 247 243 242 230 221 226 213 178 156 165 193 152 143 166 137 155 214 212 233
235 192 205 207 206 203 196 202 204 196 210 211 224 244 248 259 274 285 287 285 285 290 277 258 252 241 236 218 211 223 198 170 162 164 172 122 158 156 209 176 191 155 246
212 276 239 212 207 204 203 204 205 214 217 216 221 220 226 239 255 253 267 279 277 275 278 286 263 236 227 212 211 203 191 171 167 161 164 182 175 201 158 187 155 135 238
224 246 239 216 233 214 208 208 209 215 216 222 231 230 243 248 248 251 255 273 271 269 271 273 274 243 221 215 213 208 191 178 166 153 163 179 174 186 151 181 182 151 199
247 244 232 218 217 218 217 217 218 211 212 216 222 225 234 251 263 268 265 268 273 265 270 270 269 255 214 203 181 183 168 173 169 180 184 178 182 170 180 185 173 152 100
266 256 249 229 226 220 224 225 222 209 200 203 205 217 223 243 249 262 267 270 267 270 270 263 263 249 214 204 176 165 137 114 66 67 118 152 158 157 161 125 138 134 208
234 247 258 259 256 241 229 225 216 208 210 210 222 211 223 233 239 252 249 263 268 268 270 271 255 226 181 198 159 162 153 164 137 126 113 95 120 120 161 161 146 181 159
273 267 258 257 251 248 247 222 207 209 214 212 227 229 226 233 244 254 246 251 251 262 273 276 234 205 176 174 174 170 168 146 150 140 133 111 105 130 110 145 193 172 176
256 262 259 253 246 246 229 225 216 208 217 228 239 255 249 234 241 249 242 231 244 249 261 270 212 186 169 155 172 164 150 138 136 139 124 138 151 128 108 127 171 193 203
264 256 252 256 254 243 234 227 216 214 225 232 236 246 253 237 239 241 235 235 238 239 250 250 190 193 158 162 165 152 140 139 142 142 155 158 138 131 124 129 106 113 123
261 257 255 248 245 246 247 242 235 231 227 226 235 246 247 238 232 230 226 245 242 229 238 172 165 158 128 131 140 136 134 142 151 158 154 130 104 114 139 167 166 170 156
259 256 253 251 247 240 233 230 231 229 226 228 225 227 228 228 233 223 235 241 233 187 141 142 156 141 140 137 123 122 119 127 133 140 132 126 124 133 159 188 154 170 146
256 252 247 244 236 232 230 232 224 223 214 217 219 218 229 230 226 241 255 219 174 152 145 151 153 153 153 143 141 136 133 137 141 135 126 136 155 162 168 174 177 173 152
256 256 259 250 239 228 222 228 224 214 220 211 215 221 222 229 231 258 234 176 163 167 140 128 164 163 153 146 147 153 151 154 143 137 144 159 158 154 165 175 169 161 217
268 248 254 251 245 230 216 206 208 229 190 209 215 225 231 234 209 180 207 151 154 88 140 153 154 154 152 148 141 132 135 143 148 140 150 166 166 158 152 164 171 182 202
281 266 254 264 261 241 211 185 186 202 209 218 194 202 214 192 176 173 207 153 142 138 155 153 155 139 133 125 140 133 138 150 140 146 156 163 160 145 154 151 137 126 134
293 288 286 288 315 71 110 150 173 186 194 209 206 197 141 125 151 175 171 143 134 146 154 135 121 122 134 140 135 139 140 143 152 165 169 162 159 149 144 153 154 137 156
309 302 306 294 91 119 134 149 171 181 173 148 132 142 144 135 139 152 135 132 136 143 139 131 136 136 130 132 139 147 149 155 168 165 148 150 150 140 142 151 142 142 145
301 291 295 97 102 75 109 110 114 113 107 112 103 72 92 120 122 118 111 120 121 117 115 126 116 124 142 145 147 148 149 155 153 137 135 140 141 134 136 143 146 144 131
298 312 61 84 97 100 101 98 104 101 105 99 108 101 101 101 98 100 102 98 93 85 102 113 115 116 116 134 139 147 152 159 161 143 140 143 142 131 132 126 129 112 98
301 297 110 97 89 90 97 94 89 83 94 90 88 86 89 91 91 87 84 83 83 72 66 77 95 110 109 103 100 108 121 126 128 135 123 109 102 103 89 80 77 80 79
317 100 105 104 99 88 84 83 83 85 86 91 87 84 85 85 81 77 76 74 73 74 66 69 74 81 85 93 95 93 89 86 93 97 91 91 89 85 88 84 83 75 72
78 81 89 84 87 86 85 86 82 82 84 82 79 77 79 80 76 75 75 77 80 75 74 66 69 80 79 73 84 93 87 86 86 87 96 95 95 88 88 89 87 84 78